Location: Goll?ig?dem
(16.6773°N, 80.7332°E)
Time: 07:11:59
(UTC+00:00)

SWIFT - Pass Details

Date: 21 April 2021
Orbit: 544 x 559 km, 20.6° (Epoch: 06 May)

Event Time Altitude Azimuth Distance (km) Brightness Sun altitude
Rises 15:04:37 0° 282° (WNW) 2,709 7.0 -30.4°
Reaches altitude 10° 15:06:54 10° 281° (W) 1,818 5.8 -30.9°
Enters shadow 15:08:40 24° 278° (W) 1,152 4.5 -31.3°
